TimeHST,TemperatureF,Dew PointF,Humidity,Sea Level PressureIn,VisibilityMPH,Wind Direction,Wind SpeedMPH,Gust SpeedMPH,PrecipitationIn,Events,Conditions,WindDirDegrees,DateUTC
12:53 AM,73.0,64.0,73,30.18,10.0,ENE,16.1,-,N/A,,Overcast,70,2011-12-28 10:53:00
1:53 AM,73.0,64.0,73,30.17,10.0,ENE,16.1,-,N/A,,Overcast,70,2011-12-28 11:53:00
2:53 AM,73.0,63.0,71,30.16,10.0,ENE,13.8,-,N/A,,Mostly Cloudy,70,2011-12-28 12:53:00
3:53 AM,73.0,64.0,73,30.16,10.0,ENE,13.8,-,N/A,,Overcast,60,2011-12-28 13:53:00
4:53 AM,73.0,64.0,73,30.16,10.0,ENE,16.1,-,0.00,,Overcast,60,2011-12-28 14:53:00
5:53 AM,72.0,64.9,78,30.17,10.0,NE,16.1,-,0.01,,Mostly Cloudy,40,2011-12-28 15:53:00
6:53 AM,73.0,63.0,71,30.18,10.0,ENE,17.3,-,N/A,,Mostly Cloudy,70,2011-12-28 16:53:00
7:53 AM,73.0,63.0,71,30.20,10.0,ENE,17.3,-,N/A,,Scattered Clouds,70,2011-12-28 17:53:00
8:53 AM,75.0,62.1,64,30.22,10.0,ENE,10.4,-,N/A,,Clear,60,2011-12-28 18:53:00
9:53 AM,77.0,63.0,62,30.23,10.0,ENE,11.5,-,N/A,,Scattered Clouds,60,2011-12-28 19:53:00
10:53 AM,78.1,64.0,62,30.23,10.0,ENE,12.7,-,N/A,,Partly Cloudy,70,2011-12-28 20:53:00
11:53 AM,78.1,64.0,62,30.21,10.0,ENE,12.7,-,N/A,,Clear,60,2011-12-28 21:53:00
12:53 PM,78.1,64.0,62,30.18,10.0,ENE,12.7,-,N/A,,Clear,60,2011-12-28 22:53:00
1:53 PM,78.1,64.0,62,30.16,10.0,NE,15.0,-,N/A,,Mostly Cloudy,50,2011-12-28 23:53:00
2:53 PM,78.1,64.9,64,30.15,10.0,NE,15.0,-,N/A,,Scattered Clouds,40,2011-12-29 00:53:00
3:53 PM,75.9,64.9,69,30.16,10.0,NE,16.1,-,N/A,,Scattered Clouds,40,2011-12-29 01:53:00
4:53 PM,75.0,64.0,69,30.18,10.0,NE,12.7,-,N/A,,Partly Cloudy,50,2011-12-29 02:53:00
5:53 PM,73.9,64.9,73,30.18,10.0,NE,15.0,-,0.01,,Mostly Cloudy,50,2011-12-29 03:53:00
6:53 PM,73.0,64.9,76,30.19,10.0,NE,16.1,-,0.01,,Mostly Cloudy,40,2011-12-29 04:53:00
7:53 PM,73.0,64.9,76,30.20,10.0,NE,13.8,-,N/A,,Mostly Cloudy,50,2011-12-29 05:53:00
8:53 PM,73.0,64.9,76,30.21,10.0,NE,15.0,-,0.00,,Partly Cloudy,40,2011-12-29 06:53:00
9:53 PM,73.0,66.0,79,30.20,10.0,NE,19.6,-,N/A,,Overcast,50,2011-12-29 07:53:00
10:53 PM,73.0,66.0,79,30.21,10.0,NE,13.8,-,N/A,,Mostly Cloudy,50,2011-12-29 08:53:00
11:07 PM,73.4,66.2,78,30.21,10.0,ENE,16.1,-,N/A,,Mostly Cloudy,60,2011-12-29 09:07:00
11:18 PM,73.4,66.2,78,30.20,10.0,NE,13.8,-,N/A,,Scattered Clouds,50,2011-12-29 09:18:00
11:53 PM,73.0,66.0,79,30.19,10.0,ENE,16.1,-,N/A,,Overcast,70,2011-12-29 09:53:00